When you browse on this site, cookies collect data to enhance your experience and personalize the content and advertising you see.
Visit our Privacy Policy to learn more. By continuing to use the site, you agree to this use of cookies and data.
  • In Spain
  • List of Countries
  • For 7 days
  • Water Temperature
  • Satellite Maps
  • Weather Map
  • Weather Widgets
  • user-avatar
    Login

    Hourly Weather Siteki

    Today, 17 December, Monday

    Time Temperature Precipitation Wind Pressure Humidity
    00:00 +20°C° 0 mm 0 mps 719 mmHg 93%
    01:00 +20°C° 0 mm 0 mps 719 mmHg 94%
    02:00 +20°C° 0 mm 0 mps 719 mmHg 94%
    03:00 +22°C° 0 mm 1 mps 719 mmHg 94%
    04:00 +22°C° 0 mm 1 mps 719 mmHg 93%
    05:00 +22°C° 0 mm 1 mps 719 mmHg 92%
    06:00 +24°C° 0 mm 1 mps 719 mmHg 84%
    07:00 +25°C° 0 mm 1 mps 719 mmHg 75%
    08:00 +27°C° 0 mm 2 mps 719 mmHg 67%
    09:00 +29°C° 0 mm 2 mps 719 mmHg 59%
    10:00 +32°C° 0 mm 2 mps 719 mmHg 50%
    11:00 +35°C° 0 mm 2 mps 719 mmHg 42%
    12:00 +36°C° 0 mm 2 mps 718 mmHg 39%
    13:00 +37°C° 0 mm 3 mps 717 mmHg 35%
    14:00 +39°C° 0 mm 3 mps 717 mmHg 31%
    15:00 +37°C° 0 mm 3 mps 716 mmHg 35%
    16:00 +36°C° 0 mm 4 mps 716 mmHg 38%
    17:00 +35°C° 0 mm 4 mps 715 mmHg 41%
    18:00 +32°C° 0 mm 4 mps 715 mmHg 53%
    19:00 +28°C° 0 mm 3 mps 715 mmHg 65%
    20:00 +25°C° 0 mm 2 mps 715 mmHg 77%
    21:00 +24°C° 0 mm 1 mps 716 mmHg 81%
    22:00 +23°C° 0 mm 1 mps 717 mmHg 86%
    23:00 +20°C° 0 mm 0 mps 717 mmHg 90%

    Tomorrow, 18 December, Tuesday

    Time Temperature Precipitation Wind Pressure Humidity
    00:00 +22°C° 0 mm 1 mps 717 mmHg 89%
    01:00 +22°C° 0 mm 1 mps 716 mmHg 89%
    02:00 +22°C° 0 mm 1 mps 716 mmHg 88%
    03:00 +22°C° 0 mm 1 mps 716 mmHg 89%
    04:00 +22°C° 0 mm 1 mps 716 mmHg 89%
    05:00 +22°C° 0 mm 1 mps 716 mmHg 90%
    06:00 +24°C° 0 mm 2 mps 716 mmHg 80%
    07:00 +26°C° 0 mm 2 mps 716 mmHg 70%
    08:00 +29°C° 0 mm 2 mps 717 mmHg 60%
    09:00 +31°C° 0 mm 2 mps 716 mmHg 52%
    10:00 +35°C° 0 mm 3 mps 716 mmHg 43%
    11:00 +38°C° 0 mm 3 mps 716 mmHg 34%
    12:00 +39°C° 0 mm 3 mps 715 mmHg 31%
    13:00 +40°C° 0 mm 3 mps 715 mmHg 27%
    14:00 +42°C° 0 mm 3 mps 714 mmHg 24%
    15:00 +39°C° 0.3 mm 3 mps 714 mmHg 30%
    16:00 +37°C° 0.3 mm 4 mps 713 mmHg 36%
    17:00 +35°C° 0.3 mm 4 mps 712 mmHg 42%
    18:00 +33°C° 0 mm 3 mps 713 mmHg 50%
    19:00 +30°C° 0 mm 2 mps 713 mmHg 57%
    20:00 +27°C° 0 mm 2 mps 714 mmHg 65%
    21:00 +27°C° 0.1 mm 1 mps 714 mmHg 69%
    22:00 +26°C° 0.1 mm 1 mps 715 mmHg 74%
    23:00 +25°C° 0.1 mm 1 mps 715 mmHg 79%

    Day after tomorrow, 19 December, Wednesday

    Time Temperature Precipitation Wind Pressure Humidity
    00:00 +23°C° 0 mm 0 mps 714 mmHg 81%
    01:00 +22°C° 0 mm 0 mps 714 mmHg 84%
    02:00 +22°C° 0 mm 0 mps 714 mmHg 87%
    03:00 +22°C° 0 mm 0 mps 713 mmHg 86%
    04:00 +22°C° 0 mm 0 mps 713 mmHg 85%
    05:00 +22°C° 0 mm 0 mps 713 mmHg 84%
    06:00 +26°C° 0.1 mm 1 mps 714 mmHg 74%
    07:00 +28°C° 0.1 mm 1 mps 714 mmHg 64%
    08:00 +30°C° 0.1 mm 2 mps 714 mmHg 54%
    09:00 +34°C° 0 mm 2 mps 714 mmHg 46%
    10:00 +37°C° 0 mm 2 mps 714 mmHg 39%
    11:00 +39°C° 0 mm 2 mps 714 mmHg 31%
    12:00 +40°C° 0 mm 2 mps 714 mmHg 29%
    13:00 +42°C° 0 mm 3 mps 713 mmHg 27%
    14:00 +42°C° 0 mm 3 mps 713 mmHg 26%
    15:00 +39°C° 0.3 mm 3 mps 713 mmHg 33%
    16:00 +37°C° 0.3 mm 3 mps 712 mmHg 40%
    17:00 +34°C° 0.3 mm 3 mps 712 mmHg 48%
    18:00 +31°C° 0.9 mm 3 mps 713 mmHg 60%
    19:00 +28°C° 0.9 mm 3 mps 713 mmHg 72%
    20:00 +26°C° 0.9 mm 3 mps 714 mmHg 84%
    21:00 +25°C° 0.5 mm 3 mps 715 mmHg 86%
    22:00 +25°C° 0.5 mm 2 mps 715 mmHg 89%
    23:00 +24°C° 0.5 mm 2 mps 716 mmHg 91%

    20 December, Thursday

    Time Temperature Precipitation Wind Pressure Humidity
    00:00 +24°C° 0.4 mm 2 mps 716 mmHg 91%
    01:00 +24°C° 0.4 mm 2 mps 715 mmHg 91%
    02:00 +23°C° 0.4 mm 2 mps 715 mmHg 92%
    03:00 +23°C° 0.7 mm 2 mps 715 mmHg 93%
    04:00 +23°C° 0.7 mm 2 mps 716 mmHg 93%
    05:00 +21°C° 0.7 mm 2 mps 716 mmHg 94%
    06:00 +21°C° 0.4 mm 2 mps 716 mmHg 93%
    07:00 +21°C° 0.4 mm 2 mps 717 mmHg 91%
    08:00 +21°C° 0.4 mm 2 mps 717 mmHg 90%
    09:00 +24°C° 0.2 mm 2 mps 718 mmHg 84%
    10:00 +25°C° 0.2 mm 3 mps 718 mmHg 78%
    11:00 +26°C° 0.2 mm 3 mps 718 mmHg 72%
    12:00 +26°C° 0.1 mm 3 mps 718 mmHg 69%
    13:00 +27°C° 0.1 mm 3 mps 717 mmHg 66%
    14:00 +27°C° 0.1 mm 3 mps 717 mmHg 63%
    15:00 +26°C° 0.2 mm 3 mps 717 mmHg 66%
    16:00 +26°C° 0.2 mm 3 mps 717 mmHg 69%
    17:00 +25°C° 0.2 mm 3 mps 717 mmHg 71%
    18:00 +24°C° 0.3 mm 3 mps 718 mmHg 75%
    19:00 +23°C° 0.3 mm 2 mps 718 mmHg 78%
    20:00 +21°C° 0.3 mm 2 mps 719 mmHg 82%
    21:00 +21°C° 0.1 mm 2 mps 719 mmHg 83%
    22:00 +20°C° 0.1 mm 2 mps 719 mmHg 84%
    23:00 +20°C° 0.1 mm 2 mps 719 mmHg 85%

    21 December, Friday

    Time Temperature Precipitation Wind Pressure Humidity
    00:00 +20°C° 0 mm 2 mps 719 mmHg 86%
    01:00 +20°C° 0 mm 1 mps 719 mmHg 87%
    02:00 +20°C° 0 mm 1 mps 719 mmHg 88%
    03:00 +20°C° 0 mm 1 mps 719 mmHg 88%
    04:00 +20°C° 0 mm 1 mps 719 mmHg 89%
    05:00 +20°C° 0 mm 1 mps 719 mmHg 89%
    06:00 +20°C° 0 mm 2 mps 720 mmHg 82%
    07:00 +21°C° 0 mm 2 mps 720 mmHg 75%
    08:00 +23°C° 0 mm 2 mps 721 mmHg 68%
    09:00 +25°C° 0 mm 2 mps 720 mmHg 62%
    10:00 +26°C° 0 mm 2 mps 720 mmHg 56%
    11:00 +28°C° 0 mm 2 mps 720 mmHg 49%
    12:00 +29°C° 0 mm 2 mps 719 mmHg 47%
    13:00 +30°C° 0 mm 2 mps 719 mmHg 44%
    14:00 +31°C° 0 mm 3 mps 718 mmHg 42%
    15:00 +30°C° 0 mm 3 mps 718 mmHg 46%
    16:00 +29°C° 0 mm 4 mps 718 mmHg 50%
    17:00 +28°C° 0 mm 4 mps 717 mmHg 54%
    18:00 +26°C° 0 mm 4 mps 717 mmHg 62%
    19:00 +24°C° 0 mm 3 mps 718 mmHg 70%
    20:00 +21°C° 0 mm 3 mps 718 mmHg 79%
    21:00 +21°C° 0.1 mm 2 mps 718 mmHg 81%
    22:00 +20°C° 0.1 mm 2 mps 718 mmHg 84%
    23:00 +21°C° 0.1 mm 1 mps 719 mmHg 87%

    22 December, Saturday

    Time Temperature Precipitation Wind Pressure Humidity
    00:00 +21°C° 0.1 mm 1 mps 718 mmHg 88%
    01:00 +21°C° 0.1 mm 1 mps 718 mmHg 89%
    02:00 +21°C° 0.1 mm 1 mps 718 mmHg 90%
    03:00 +21°C° 0.1 mm 1 mps 718 mmHg 91%
    04:00 +18°C° 0.1 mm 0 mps 718 mmHg 92%
    05:00 +18°C° 0.1 mm 0 mps 718 mmHg 93%
    06:00 +19°C° 0.1 mm 0 mps 718 mmHg 91%
    07:00 +19°C° 0.1 mm 0 mps 719 mmHg 89%
    08:00 +19°C° 0.1 mm 0 mps 719 mmHg 88%
    09:00 +23°C° 0.1 mm 1 mps 719 mmHg 80%
    10:00 +25°C° 0.1 mm 1 mps 719 mmHg 72%
    11:00 +26°C° 0.1 mm 1 mps 718 mmHg 64%
    12:00 +27°C° 0 mm 2 mps 718 mmHg 61%
    13:00 +27°C° 0 mm 2 mps 717 mmHg 59%
    14:00 +28°C° 0 mm 2 mps 717 mmHg 56%
    15:00 +27°C° 0 mm 3 mps 717 mmHg 58%
    16:00 +27°C° 0 mm 3 mps 716 mmHg 61%
    17:00 +26°C° 0 mm 3 mps 716 mmHg 64%
    18:00 +24°C° 0.2 mm 3 mps 717 mmHg 70%
    19:00 +23°C° 0.2 mm 2 mps 717 mmHg 77%
    20:00 +21°C° 0.2 mm 2 mps 717 mmHg 84%
    21:00 +21°C° 0.2 mm 2 mps 718 mmHg 86%
    22:00 +21°C° 0.2 mm 1 mps 718 mmHg 88%
    23:00 +21°C° 0.2 mm 1 mps 718 mmHg 91%
    Show more